1,427,287개(459/71365페이지)
LECTURE
번호 제목 글쓴이 조회 날짜
1418127 Find Out How To Make Neon Sign HyllestedEwing9284 0 2022.04.27 01:44
1418126 Permainan Di Tempat Gambling Permainan P DreyerShore5110 0 2022.04.27 01:44
1418125 Breakfast Menu Choices For An Event Or E HayBreen7015 0 2022.04.27 01:44
1418124 Eight Greatest Natural Home Cleansing Pr BarbeeOddershede7614 0 2022.04.27 01:44
1418123 6 Common Risks For Consulting Firms JoensenGonzales6491 1 2022.04.27 01:44
1418122 Identities Of The Noodle MarcherFisker4825 0 2022.04.27 01:43
1418121 Język Polski Klasa 6 - Szkoła Podstawowa 사진 KesslerBager3145 0 2022.04.27 01:43
1418120 آموزشگاه پیرایش و آرایشگری مردانه منافی MollerupHaas0152 2 2022.04.27 01:43
1418119 Contribution Margin CastanedaWhite8296 0 2022.04.27 01:43
1418118 Typically the War on Applied Games ButcherSweeney2637 0 2022.04.27 01:43
1418117 What Makes A Poker Player Good? GreenbergBanke1819 0 2022.04.27 01:43
1418116 Believing These 5 Myths About Mink Lash ChristieOneill6032 2 2022.04.27 01:43
1418115 Groupm Makes Advertising Work Better For 사진 WilkersonDowling2676 0 2022.04.27 01:43
1418114 Meluap KELEBIHAN Bila Kalian Selaku Juru MaloneyFoged4652 4 2022.04.27 01:43
1418113 Celebration Meals Ideas For Feeding A Cr AlmeidaBell3701 0 2022.04.27 01:43
1418112 Jai, một nhân vật kết hợp Vũ trụ Nạp thẻ NicholsEngberg1582 0 2022.04.27 01:43
1418111 How To Process Bank Reconciliations In Q CohenIpsen4978 1 2022.04.27 01:43
1418110 Top Songs For Karaoke DoganBreum1277 0 2022.04.27 01:43
1418109 Metode Naikkan Pendapatan Taruhan Sabung BraunBowen4049 0 2022.04.27 01:43
1418108 Pelajari Langkah Keren Bermain Judi Onli BatesBjerrum1988 0 2022.04.27 01:43